Location: Lafig�re
(44.4503°N, 4.0357°E)
Time: 02:58:47
(UTC+00:00)

Transit 4A - Pass Details

Date: 29 January 2021
Orbit: 866 x 978 km, 66.8° (Epoch: 02 March)

Event Time Altitude Azimuth Distance (km) Brightness Sun altitude
Rises 20:14:07 0° 277° (W) 3,677 12.0 -36.6°
Reaches altitude 10° 20:18:06 10° 301° (WNW) 2,724 11.0 -37.3°
Maximum altitude 20:21:27 15° 333° (NNW) 2,399 10.4 -37.8°
Enters shadow 20:23:25 13° 353° (N) 2,506 10.3 -38.2°
Drops below altitude 10° 20:24:48 10° 5° (N) 2,704 - -38.4°
Sets 20:28:44 0° 29° (NNE) 3,631 - -39.1°
